Zurück zum Katalog

CZ-6A DEB

AktivPO
NORAD 61494·DEBRIS·🇨🇳 China

Gestartet Aug 6, 2024 von Taiyuan Satellite Launch Center

Loading…

Nächste Überflüge (nächste 24 Stunden)

TLE

AktuellSource: Space-Track

Epoche: Sep 14, 2026, 06:15 UTC

1 61494U 24140ABC 26257.26088364  .00001802  00000-0  97024-3 0  9990
2 61494  88.8566 253.8175 0100162 314.7703  44.5364 14.09903844103410

Verfolge CZ-6A DEB in Echtzeit mit AllMySat

Download on the App Store